When you browse on this site, cookies collect data to enhance your experience and personalize the content and advertising you see.
Visit our Privacy Policy to learn more. By continuing to use the site, you agree to this use of cookies and data.
  • In France
  • List of Countries
  • For 7 days
  • Water Temperature
  • Satellite Maps
  • Weather Map
  • Weather Widgets
  • user-avatar
    Login

    Hourly Weather Konstantyna

    Today, 19 January, Saturday

    Time Temperature Precipitation Wind Pressure Humidity
    00:00 +6°C° 0 mm 1 mps 708 mmHg 91%
    01:00 +6°C° 0 mm 1 mps 708 mmHg 90%
    02:00 +6°C° 0 mm 1 mps 707 mmHg 90%
    03:00 +6°C° 0 mm 1 mps 707 mmHg 89%
    04:00 +5°C° 0 mm 1 mps 707 mmHg 88%
    05:00 +5°C° 0 mm 1 mps 707 mmHg 87%
    06:00 +4°C° 0 mm 2 mps 707 mmHg 85%
    07:00 +6°C° 0 mm 2 mps 707 mmHg 79%
    08:00 +7°C° 0 mm 2 mps 707 mmHg 73%
    09:00 +8°C° 0 mm 2 mps 708 mmHg 67%
    10:00 +9°C° 0 mm 2 mps 708 mmHg 63%
    11:00 +10°C° 0 mm 2 mps 708 mmHg 59%
    12:00 +12°C° 0 mm 2 mps 708 mmHg 56%
    13:00 +12°C° 0.4 mm 2 mps 707 mmHg 59%
    14:00 +12°C° 0.4 mm 2 mps 707 mmHg 62%
    15:00 +10°C° 0.4 mm 2 mps 707 mmHg 66%
    16:00 +9°C° 0.4 mm 2 mps 707 mmHg 74%
    17:00 +9°C° 0.4 mm 1 mps 707 mmHg 82%
    18:00 +8°C° 0.4 mm 1 mps 707 mmHg 91%
    19:00 +7°C° 0 mm 1 mps 707 mmHg 92%
    20:00 +6°C° 0 mm 1 mps 707 mmHg 93%
    21:00 +5°C° 0 mm 0 mps 707 mmHg 94%
    22:00 +5°C° 0 mm 0 mps 707 mmHg 94%
    23:00 +5°C° 0 mm 1 mps 707 mmHg 93%

    Tomorrow, 20 January, Sunday

    Time Temperature Precipitation Wind Pressure Humidity
    00:00 +5°C° 0 mm 1 mps 707 mmHg 92%
    01:00 +5°C° 0 mm 1 mps 707 mmHg 92%
    02:00 +5°C° 0 mm 1 mps 706 mmHg 91%
    03:00 +5°C° 0 mm 1 mps 706 mmHg 91%
    04:00 +5°C° 0 mm 1 mps 706 mmHg 91%
    05:00 +5°C° 0 mm 1 mps 706 mmHg 90%
    06:00 +5°C° 0 mm 1 mps 706 mmHg 90%
    07:00 +5°C° 0 mm 2 mps 706 mmHg 84%
    08:00 +7°C° 0 mm 2 mps 706 mmHg 79%
    09:00 +8°C° 0 mm 2 mps 706 mmHg 73%
    10:00 +9°C° 0 mm 3 mps 706 mmHg 65%
    11:00 +11°C° 0 mm 3 mps 706 mmHg 56%
    12:00 +12°C° 0 mm 4 mps 706 mmHg 47%
    13:00 +12°C° 0 mm 4 mps 705 mmHg 50%
    14:00 +12°C° 0 mm 3 mps 705 mmHg 53%
    15:00 +12°C° 0 mm 3 mps 704 mmHg 55%
    16:00 +11°C° 0.3 mm 3 mps 704 mmHg 63%
    17:00 +10°C° 0.3 mm 2 mps 704 mmHg 71%
    18:00 +9°C° 0.3 mm 2 mps 704 mmHg 78%
    19:00 +8°C° 0.4 mm 2 mps 704 mmHg 80%
    20:00 +8°C° 0.4 mm 2 mps 704 mmHg 82%
    21:00 +8°C° 0.4 mm 2 mps 704 mmHg 84%
    22:00 +9°C° 0.4 mm 1 mps 704 mmHg 85%
    23:00 +8°C° 0.4 mm 1 mps 704 mmHg 86%

    Day after tomorrow, 21 January, Monday

    Time Temperature Precipitation Wind Pressure Humidity
    00:00 +8°C° 0.4 mm 1 mps 703 mmHg 87%
    01:00 +8°C° 1.2 mm 1 mps 703 mmHg 89%
    02:00 +8°C° 1.2 mm 1 mps 703 mmHg 91%
    03:00 +8°C° 1.2 mm 1 mps 703 mmHg 92%
    04:00 +8°C° 0.3 mm 1 mps 703 mmHg 92%
    05:00 +8°C° 0.3 mm 1 mps 703 mmHg 92%
    06:00 +7°C° 0.3 mm 1 mps 703 mmHg 92%
    07:00 +7°C° 0 mm 2 mps 703 mmHg 87%
    08:00 +8°C° 0 mm 2 mps 703 mmHg 82%
    09:00 +9°C° 0 mm 2 mps 703 mmHg 78%
    10:00 +10°C° 0 mm 3 mps 703 mmHg 72%
    11:00 +11°C° 0 mm 4 mps 703 mmHg 66%
    12:00 +13°C° 0 mm 4 mps 703 mmHg 60%
    13:00 +12°C° 0.1 mm 4 mps 703 mmHg 60%
    14:00 +12°C° 0.1 mm 4 mps 703 mmHg 61%
    15:00 +12°C° 0.1 mm 3 mps 703 mmHg 62%
    16:00 +9°C° 1 mm 5 mps 703 mmHg 72%
    17:00 +8°C° 1 mm 7 mps 704 mmHg 82%
    18:00 +5°C° 1 mm 9 mps 704 mmHg 92%
    19:00 +5°C° 0.4 mm 7 mps 705 mmHg 91%
    20:00 +4°C° 0.4 mm 6 mps 705 mmHg 91%
    21:00 +5°C° 0.4 mm 5 mps 706 mmHg 91%
    22:00 +5°C° 0.1 mm 4 mps 706 mmHg 90%
    23:00 +5°C° 0.1 mm 3 mps 706 mmHg 90%

    22 January, Tuesday

    Time Temperature Precipitation Wind Pressure Humidity
    00:00 +5°C° 0.1 mm 3 mps 706 mmHg 90%
    01:00 +4°C° 0.1 mm 3 mps 706 mmHg 90%
    02:00 +4°C° 0.1 mm 3 mps 706 mmHg 91%
    03:00 +4°C° 0.1 mm 3 mps 706 mmHg 92%
    04:00 +5°C° 0.1 mm 2 mps 706 mmHg 92%
    05:00 +5°C° 0.1 mm 2 mps 706 mmHg 92%
    06:00 +4°C° 0.1 mm 2 mps 706 mmHg 91%
    07:00 +4°C° 0 mm 3 mps 706 mmHg 86%
    08:00 +5°C° 0 mm 3 mps 707 mmHg 80%
    09:00 +5°C° 0 mm 3 mps 707 mmHg 75%
    10:00 +7°C° 0 mm 3 mps 707 mmHg 70%
    11:00 +7°C° 0 mm 4 mps 706 mmHg 65%
    12:00 +8°C° 0 mm 4 mps 706 mmHg 60%
    13:00 +8°C° 0.1 mm 4 mps 705 mmHg 59%
    14:00 +9°C° 0.1 mm 3 mps 705 mmHg 58%
    15:00 +9°C° 0.1 mm 3 mps 704 mmHg 56%
    16:00 +7°C° 0.1 mm 2 mps 704 mmHg 63%
    17:00 +7°C° 0.1 mm 1 mps 703 mmHg 70%
    18:00 +6°C° 0.1 mm 1 mps 703 mmHg 76%
    19:00 +6°C° 0 mm 1 mps 703 mmHg 76%
    20:00 +5°C° 0 mm 2 mps 703 mmHg 76%
    21:00 +4°C° 0 mm 3 mps 702 mmHg 75%
    22:00 +3°C° 0 mm 3 mps 701 mmHg 73%
    23:00 +3°C° 0 mm 3 mps 700 mmHg 71%

    23 January, Wednesday

    Time Temperature Precipitation Wind Pressure Humidity
    00:00 +3°C° 0 mm 3 mps 699 mmHg 69%
    01:00 +3°C° 0.1 mm 3 mps 699 mmHg 70%
    02:00 +4°C° 0.1 mm 3 mps 698 mmHg 71%
    03:00 +4°C° 0.1 mm 3 mps 697 mmHg 72%
    04:00 +4°C° 0.2 mm 3 mps 696 mmHg 76%
    05:00 +3°C° 0.2 mm 3 mps 696 mmHg 80%
    06:00 +4°C° 0.2 mm 2 mps 696 mmHg 84%
    07:00 +5°C° 0.6 mm 2 mps 696 mmHg 84%
    08:00 +5°C° 0.6 mm 2 mps 696 mmHg 83%
    09:00 +5°C° 0.6 mm 2 mps 696 mmHg 83%
    10:00 +4°C° 1.3 mm 4 mps 695 mmHg 79%
    11:00 +3°C° 1.3 mm 6 mps 695 mmHg 75%
    12:00 +3°C° 1.3 mm 7 mps 695 mmHg 71%
    13:00 +2°C° 0.1 mm 8 mps 694 mmHg 69%
    14:00 +2°C° 0.1 mm 10 mps 694 mmHg 66%
    15:00 +2°C° 0.1 mm 11 mps 693 mmHg 63%
    16:00 +1°C° 0.4 mm 9 mps 694 mmHg 70%
    17:00 0°C° 0.4 mm 8 mps 694 mmHg 77%
    18:00 0°C° 0.4 mm 7 mps 694 mmHg 84%
    19:00 -1°C° 0 mm 6 mps 694 mmHg 84%
    20:00 0°C° 0 mm 4 mps 694 mmHg 84%
    21:00 +1°C° 0 mm 3 mps 695 mmHg 84%
    22:00 0°C° 0 mm 3 mps 695 mmHg 84%
    23:00 0°C° 0 mm 3 mps 694 mmHg 84%

    24 January, Thursday

    Time Temperature Precipitation Wind Pressure Humidity
    00:00 0°C° 0 mm 3 mps 694 mmHg 84%
    01:00 0°C° 0 mm 3 mps 694 mmHg 86%
    02:00 -1°C° 0 mm 3 mps 694 mmHg 87%
    03:00 -1°C° 0 mm 3 mps 694 mmHg 89%
    04:00 -1°C° 0 mm 3 mps 694 mmHg 89%
    05:00 -2°C° 0 mm 3 mps 693 mmHg 88%
    06:00 -2°C° 0 mm 3 mps 693 mmHg 88%
    07:00 -2°C° 0 mm 5 mps 694 mmHg 82%
    08:00 -2°C° 0 mm 6 mps 694 mmHg 76%
    09:00 -1°C° 0 mm 7 mps 694 mmHg 69%
    10:00 -1°C° 0.1 mm 7 mps 694 mmHg 74%
    11:00 +1°C° 0.1 mm 6 mps 694 mmHg 78%
    12:00 +1°C° 0.1 mm 6 mps 694 mmHg 82%
    13:00 +1°C° 2.4 mm 5 mps 694 mmHg 87%
    14:00 +1°C° 2.4 mm 5 mps 695 mmHg 92%
    15:00 +3°C° 2.4 mm 4 mps 695 mmHg 96%
    16:00 +1°C° 0.6 mm 4 mps 695 mmHg 95%
    17:00 +1°C° 0.6 mm 4 mps 696 mmHg 95%
    18:00 0°C° 0.6 mm 4 mps 696 mmHg 94%
    19:00 +1°C° 4.4 mm 4 mps 697 mmHg 95%
    20:00 +1°C° 4.4 mm 5 mps 698 mmHg 97%
    21:00 +1°C° 4.4 mm 5 mps 698 mmHg 99%
    22:00 +1°C° 6.2 mm 6 mps 699 mmHg 99%
    23:00 0°C° 6.2 mm 7 mps 699 mmHg 99%
    Show more